This is the latest recevied weather packets stored in our database for station/object KN6WGU. If no packets are shown the sender has not sent any weather packets the latest 10 day(s).
| Time | Temp. | Humidity | Pressure | Rain* | Wind** | Luminosity | Snow |
|---|---|---|---|---|---|---|---|
| 1777492187 | 9.44° C | 94% | 1003.1 hPa | 0 mm | - | 41 W/m² | - |
| 1777491884 | 9.44° C | 94% | 1003.1 hPa | 0 mm | - | 38 W/m² | - |
| 1777491580 | 9.44° C | 93% | 1003.1 hPa | 0 mm | - | 48 W/m² | - |
| 1777491278 | 9.44° C | 93% | 1003 hPa | 0 mm | - | 41 W/m² | - |
| 1777490974 | 9.44° C | 93% | 1002.9 hPa | 0 mm | - | 50 W/m² | - |
| 1777490670 | 9.44° C | 93% | 1003.1 hPa | 0 mm | - | 55 W/m² | - |
| 1777490366 | 9.44° C | 92% | 1003 hPa | 0 mm | - | 62 W/m² | - |
| 1777490064 | 9.44° C | 92% | 1002.9 hPa | 0 mm | - | 64 W/m² | - |
| 1777489761 | 9.44° C | 92% | 1003 hPa | 0 mm | - | 64 W/m² | - |
| 1777489459 | 9.44° C | 92% | 1002.9 hPa | 0 mm | - | 78 W/m² | - |
| 1777489154 | 10° C | 91% | 1002.7 hPa | 0 mm | - | 77 W/m² | - |
| 1777488852 | 10° C | 91% | 1002.8 hPa | 0 mm | - | 87 W/m² | - |
| 1777488549 | 10° C | 92% | 1002.9 hPa | 0 mm | - | 98 W/m² | - |
| 1777488247 | 10° C | 92% | 1002.9 hPa | 0 mm | - | 93 W/m² | - |
| 1777487945 | 10.56° C | 92% | 1003 hPa | 0 mm | - | 91 W/m² | - |
| 1777487642 | 10.56° C | 93% | 1002.8 hPa | 0 mm | - | 88 W/m² | - |
| 1777487339 | 10.56° C | 93% | 1003.2 hPa | 0 mm | - | 116 W/m² | - |
| 1777487037 | 10.56° C | 93% | 1003.1 hPa | 0 mm | - | 82 W/m² | - |
| 1777486732 | 10.56° C | 93% | 1002.9 hPa | 0 mm | - | 101 W/m² | - |
| 1777486430 | 10.56° C | 93% | 1003.2 hPa | 0 mm | - | 77 W/m² | - |
| 1777486128 | 10.56° C | 93% | 1003 hPa | 0 mm | - | 75 W/m² | - |
| 1777485824 | 10.56° C | 93% | 1003 hPa | 0 mm | - | 124 W/m² | - |
| 1777485520 | 10.56° C | 93% | 1003.2 hPa | 0 mm | - | 92 W/m² | - |
| 1777485216 | 10.56° C | 93% | 1003.1 hPa | 0 mm | - | 77 W/m² | - |
| 1777484913 | 10.56° C | 93% | 1003.3 hPa | 0 mm | - | 73 W/m² | - |
* Rain latest hour (hover to see other rain measurements)
** Current wind speed in m/s (hover to see current wind gust speed)